Location: ??????
(38.1303°N, 24.0039°E)
Time: 04:17:15
(UTC+00:00)

Okean 3 Rocket - Pass Details

Date: 20 June 2021
Orbit: 616 x 644 km, 82.5° (Epoch: 05 August)

Event Time Altitude Azimuth Distance (km) Brightness Sun altitude
Exits shadow 01:32:34 24° 224° (SW) 1,289 4.6 -14.4°
Maximum altitude 01:34:46 42° 281° (W) 884 4.1 -14.1°
Drops below altitude 10° 01:38:56 10° 353° (N) 1,985 6.7 -13.5°
Sets 01:41:16 0° 0° (N) 2,894 7.7 -13.2°
